West Paducah, KY

1:50 PM CST on December 09, 2016 (GMT -0600)
Barkley Regional

Weather History for KPAH - July, 2012

Change the Weather History Date:

Monday, July 9, 2012

  Actual Average Record
Temperature  
Mean Temperature 82 °F 79 °F  
Max Temperature 92 °F 89 °F 101 °F (1990)
Min Temperature 72 °F 69 °F 57 °F (1961)
Degree Days  
Heating Degree Days 0 0  
Month to date heating degree days 0 0  
Since 1 June heating degree days 7 4  
Since 1 July heating degree days 0 0  
Cooling Degree Days 17 14  
Month to date cooling degree days 206 126  
Year to date cooling degree days 945 618  
Since 1 June cooling degree days 562 446  
Growing Degree Days 32 (Base 50)    
Moisture  
Dew Point 71 °F    
Average Humidity 76    
Maximum Humidity 100    
Minimum Humidity 52    
Precipitation  
Precipitation T in 0.15 in 2.70 in (1991)
Month to date precipitation 0.94 1.33  
Year to date precipitation 12.53 26.61  
Snow  
Snow 0.00 in 0.00 in 0.00 in (2002)
Month to date snowfall 0.0 0.0  
Since 1 June snowfall 0.0 0.0  
Since 1 July snowfall 0.0 0.0  
Snow Depth 0.00 in    
Sea Level Pressure  
Sea Level Pressure 29.96 in    
Wind  
Wind Speed 5 mph (NE)    
Max Wind Speed 13 mph    
Max Gust Speed 22 mph    
Visibility 7 miles    
Events Rain , Thunderstorm    
T = Trace of Precipitation, MM = Missing Value Source: NWS Daily Summary

Daily Weather History Graph

Daily Weather History Graph

Search for Another Location

Airport or City:

Trip Planner

Search our weather history database for the weather conditions in past years. The results will help you decide how hot, cold, wet, or windy it might be!

Date:

Astronomy

Jul. 09, 2012 Rise Set
Actual Time 5:43 AM CDT 8:17 PM CDT
Civil Twilight 5:13 AM CDT 8:47 PM CDT
Nautical Twilight 4:35 AM CDT 9:24 PM CDT
Astronomical Twilight 3:53 AM CDT 10:06 PM CDT
Moon 11:43 PM CDT 12:00 PM CDT
Length of Visible Light 15h 34m
Length of Day
14h 33m
Waning Gibbous, 63% of the Moon is Illuminated
Jul 9
Waning Gibbous
Jul 10
Last Quarter
Jul 18
New
Jul 26
First Quarter
Aug 1
Full

Hourly Weather History & Observations

Time (CDT) Temp. Heat Index Dew Point Humidity Pressure Visibility Wind Dir Wind Speed Gust Speed Precip Events Conditions
12:53 AM 73.0 °F - 71.1 °F 93% 29.99 in 7.0 mi NNE 6.9 mph - 0.01 in Rain Light Rain
1:00 AM 73.4 °F - 71.6 °F 94% 30.00 in 7.0 mi NNE 6.9 mph - 0.00 in Rain Light Rain
1:53 AM 73.0 °F - 71.1 °F 93% 29.95 in 5.0 mi NNE 8.1 mph - 0.00 in   Mostly Cloudy
2:53 AM 73.0 °F - 71.1 °F 93% 29.95 in 6.0 mi NNE 4.6 mph - N/A   Partly Cloudy
3:53 AM 73.0 °F - 71.1 °F 93% 29.94 in 6.0 mi Calm Calm - N/A   Clear
4:53 AM 73.0 °F - 71.1 °F 93% 29.95 in 6.0 mi NW 3.5 mph - N/A   Clear
5:53 AM 72.0 °F - 71.1 °F 97% 29.97 in 2.5 mi West 4.6 mph - N/A   Clear
6:45 AM 73.4 °F - 71.6 °F 94% 30.00 in 3.0 mi West 5.8 mph - N/A   Clear
6:53 AM 73.0 °F - 71.1 °F 93% 29.98 in 3.0 mi West 4.6 mph - N/A   Clear
7:53 AM 73.9 °F - 71.1 °F 91% 29.99 in 5.0 mi Calm Calm - N/A   Clear
8:53 AM 75.9 °F - 72.0 °F 87% 29.99 in 6.0 mi North 4.6 mph - N/A   Clear
9:12 AM 77.0 °F - 71.6 °F 83% 30.01 in 6.0 mi North 4.6 mph - N/A   Haze
9:51 AM 78.8 °F - 73.4 °F 83% 30.00 in 7.0 mi NNE 6.9 mph - N/A   Mostly Cloudy
9:53 AM 78.1 °F - 72.0 °F 81% 29.99 in 7.0 mi NE 9.2 mph - N/A   Mostly Cloudy
10:45 AM 78.8 °F - 71.6 °F 78% 30.01 in 7.0 mi ENE 5.8 mph - N/A   Overcast
10:53 AM 80.1 °F 83.8 °F 72.0 °F 76% 30.00 in 7.0 mi NE 4.6 mph - N/A   Mostly Cloudy
11:50 AM 80.6 °F 84.6 °F 71.6 °F 74% 30.01 in 9.0 mi ENE 5.8 mph - N/A   Scattered Clouds
11:53 AM 82.9 °F 88.0 °F 72.0 °F 69% 29.99 in 9.0 mi ENE 3.5 mph - N/A   Partly Cloudy
12:53 PM 86.0 °F 91.5 °F 71.1 °F 61% 29.97 in 9.0 mi Variable 4.6 mph - N/A   Scattered Clouds
1:05 PM 86.0 °F 91.8 °F 71.6 °F 62% 29.98 in 10.0 mi Variable 3.5 mph - N/A   Mostly Cloudy
1:15 PM 87.8 °F 93.8 °F 71.6 °F 58% 29.98 in 10.0 mi NNE 6.9 mph - N/A   Scattered Clouds
1:53 PM 88.0 °F 92.9 °F 70.0 °F 55% 29.96 in 10.0 mi Variable 5.8 mph - N/A   Partly Cloudy
2:53 PM 88.0 °F 92.9 °F 70.0 °F 55% 29.93 in 10.0 mi NE 6.9 mph - N/A   Partly Cloudy
3:53 PM 90.0 °F 95.4 °F 70.0 °F 52% 29.92 in 10.0 mi East 6.9 mph - N/A   Partly Cloudy
4:53 PM 88.0 °F 92.1 °F 69.1 °F 53% 29.90 in 10.0 mi ENE 8.1 mph - N/A   Clear
5:53 PM 89.1 °F 94.1 °F 70.0 °F 53% 29.89 in 10.0 mi ESE 3.5 mph - N/A   Clear
6:53 PM 86.0 °F 91.5 °F 71.1 °F 61% 29.90 in 10.0 mi East 4.6 mph - N/A   Scattered Clouds
7:16 PM 84.2 °F 89.6 °F 71.6 °F 66% 29.92 in 9.0 mi East 3.5 mph - N/A Thunderstorm Thunderstorm
7:53 PM 84.0 °F 89.6 °F 72.0 °F 67% 29.91 in 9.0 mi East 3.5 mph - N/A Thunderstorm Thunderstorm
8:15 PM 82.4 °F 87.2 °F 71.6 °F 70% 29.93 in 9.0 mi NE 3.5 mph - N/A   Clear
8:53 PM 82.0 °F 86.7 °F 72.0 °F 71% 29.92 in 9.0 mi North 3.5 mph - N/A   Clear
9:53 PM 80.1 °F 83.8 °F 72.0 °F 76% 29.95 in 7.0 mi NNE 4.6 mph - N/A   Clear
10:53 PM 78.1 °F - 72.0 °F 81% 29.94 in 6.0 mi NE 3.5 mph - N/A   Haze
11:53 PM 75.9 °F - 73.0 °F 91% 29.94 in 5.0 mi East 4.6 mph - N/A   Clear